Wind From: 11-12-2017 06:00 Until: 12-12-2017 06:00 warning for: Wind Level: Orange info button

Power and phone distribution networks may be disrupted for relatively long periods., Roofs and chimneys can be damaged. , Tree branches may break. , Vehicles can be deported. , Traffic may be disrupted, particularly on secondary roads in forest areas. Limit your trips. , Limit your speed in highway driving, especially if you drive a vehicle or hitch sensitive to wind. , Do not go for walks in forests or along the coast., In town, be vigilant against possible falling objects., Do not work on roofs and do not touch any electrical line fallen on the ground., Store or secure sensitive objects to wind or likely to be damaged., Always install power generators outside buildings. 


Meteo18 Weather Cam more information Meteo18 Weather Cam


Thunder radar more information blitzortung!


Rain radar more information rain snow radar


Visit our other weather sites:

Template documentation
and downloads

And another site



Weather Underground History page Text

Daily Summary for January 17, 2017 Units:  Metric    English   Both
« Previous Day
Next Day »
Daily Weekly Monthly Yearly Custom
  High: Low: Average:
Temperature: -1.0 °C -4.2 °C -2.9 °C
Dew Point: -2.5 °C -6.8 °C -5.2 °C
Humidity: 90 % 75 % 84 %
Wind Speed: 25.7 km/h 0.0 km/h 11.7 km/h
Wind Gust: 41.8 km/h - -
Wind:- - ESE
Pressure: 1031.4 hPa 1028.7 hPa -
Precipitation: 0.0 mm    
Historical Graphs
 
 
Tabular Data for January 17, 2017
Time Temperature Dew Point Pressure Wind Wind Speed Wind Gust Humidity Rainfall Rate (Hourly)
00:02 -1.1 °C -2.5 °C 1028.7 hPa NE 6.4 km/h 17.7 km/h 90 % 0.0 mm
00:07 -1.2 °C -2.6 °C 1028.7 hPa NNE 8.0 km/h 14.5 km/h 90 % 0.0 mm
00:12 -1.2 °C -2.6 °C 1028.7 hPa NNE 12.9 km/h 19.3 km/h 90 % 0.0 mm
00:17 -1.1 °C -2.7 °C 1028.7 hPa North 12.9 km/h 19.3 km/h 89 % 0.0 mm
00:22 -1.0 °C -2.7 °C 1028.7 hPa NNE 19.3 km/h 20.9 km/h 88 % 0.0 mm
00:27 -1.1 °C -2.7 °C 1028.7 hPa NE 20.9 km/h 25.7 km/h 89 % 0.0 mm
00:32 -1.1 °C -2.7 °C 1028.7 hPa NE 12.9 km/h 25.7 km/h 89 % 0.0 mm
00:37 -1.1 °C -2.8 °C 1028.7 hPa North 9.7 km/h 24.1 km/h 88 % 0.0 mm
00:42 -1.1 °C -2.8 °C 1028.7 hPa NE 9.7 km/h 24.1 km/h 88 % 0.0 mm
00:52 -1.2 °C -2.9 °C 1028.7 hPa NE 12.9 km/h 24.1 km/h 88 % 0.0 mm
00:57 -1.2 °C -2.9 °C 1028.7 hPa NE 9.7 km/h 20.9 km/h 88 % 0.0 mm
01:02 -1.2 °C -2.9 °C 1028.7 hPa ENE 14.5 km/h 24.1 km/h 88 % 0.0 mm
01:07 -1.3 °C -3.2 °C 1028.7 hPa NE 16.1 km/h 24.1 km/h 87 % 0.0 mm
01:12 -1.3 °C -3.2 °C 1028.7 hPa NNE 19.3 km/h 24.1 km/h 87 % 0.0 mm
01:17 -1.3 °C -3.2 °C 1028.7 hPa NE 12.9 km/h 20.9 km/h 87 % 0.0 mm
01:27 -1.5 °C -3.4 °C 1028.7 hPa NNW 4.8 km/h 22.5 km/h 87 % 0.0 mm
01:32 -1.6 °C -3.5 °C 1028.7 hPa NNW 9.7 km/h 19.3 km/h 87 % 0.0 mm
01:37 -1.6 °C -3.5 °C 1028.7 hPa NE 8.0 km/h 19.3 km/h 87 % 0.0 mm
01:42 -1.7 °C -3.6 °C 1028.7 hPa NE 14.5 km/h 19.3 km/h 87 % 0.0 mm
01:47 -1.7 °C -3.6 °C 1028.7 hPa NE 6.4 km/h 19.3 km/h 87 % 0.0 mm
01:52 -1.8 °C -3.7 °C 1028.7 hPa North 8.0 km/h 19.3 km/h 87 % 0.0 mm
01:57 -1.8 °C -3.7 °C 1028.7 hPa NE 4.8 km/h 19.3 km/h 87 % 0.0 mm
02:02 -1.8 °C -3.7 °C 1028.7 hPa NNE 12.9 km/h 17.7 km/h 87 % 0.0 mm
02:12 -1.9 °C -3.6 °C 1028.7 hPa NNW 3.2 km/h 17.7 km/h 88 % 0.0 mm
02:17 -2.0 °C -3.7 °C 1028.7 hPa North 3.2 km/h 17.7 km/h 88 % 0.0 mm
02:22 -2.1 °C -3.8 °C 1028.7 hPa NNW 4.8 km/h 16.1 km/h 88 % 0.0 mm
02:27 -2.1 °C -3.7 °C 1028.7 hPa North 9.7 km/h 16.1 km/h 89 % 0.0 mm
02:32 -2.1 °C -3.7 °C 1028.7 hPa NNW 14.5 km/h 14.5 km/h 89 % 0.0 mm
02:37 -2.1 °C -3.7 °C 1028.7 hPa NNW 3.2 km/h 14.5 km/h 89 % 0.0 mm
02:42 -2.1 °C -3.7 °C 1028.7 hPa North 6.4 km/h 17.7 km/h 89 % 0.0 mm
02:47 -2.2 °C -3.6 °C 1028.7 hPa NNW 1.6 km/h 17.7 km/h 90 % 0.0 mm
02:52 -2.2 °C -3.6 °C 1028.7 hPa NNW 3.2 km/h 17.7 km/h 90 % 0.0 mm
02:57 -2.3 °C -3.7 °C 1028.7 hPa NNE 3.2 km/h 16.1 km/h 90 % 0.0 mm
03:02 -2.3 °C -3.7 °C 1029.0 hPa NNE 6.4 km/h 11.3 km/h 90 % 0.0 mm
03:07 -2.3 °C -3.7 °C 1029.0 hPa NNE 3.2 km/h 14.5 km/h 90 % 0.0 mm
03:12 -2.3 °C -3.7 °C 1029.0 hPa NE 11.3 km/h 17.7 km/h 90 % 0.0 mm
03:17 -2.2 °C -3.6 °C 1029.0 hPa WNW 1.6 km/h 17.7 km/h 90 % 0.0 mm
03:22 -2.2 °C -3.6 °C 1029.0 hPa NNW 3.2 km/h 17.7 km/h 90 % 0.0 mm
03:27 -2.2 °C -3.6 °C 1029.0 hPa ENE 4.8 km/h 17.7 km/h 90 % 0.0 mm
03:32 -2.1 °C -3.5 °C 1029.0 hPa NE 6.4 km/h 17.7 km/h 90 % 0.0 mm
03:42 -2.1 °C -3.7 °C 1029.0 hPa NE 16.1 km/h 20.9 km/h 89 % 0.0 mm
03:52 -2.1 °C -3.8 °C 1029.0 hPa NNE 17.7 km/h 29.0 km/h 88 % 0.0 mm
03:57 -2.2 °C -3.8 °C 1028.7 hPa NNE 8.0 km/h 29.0 km/h 89 % 0.0 mm
04:02 -2.3 °C -3.9 °C 1029.0 hPa NNW 11.3 km/h 29.0 km/h 89 % 0.0 mm
04:12 -2.4 °C -4.0 °C 1029.0 hPa NNE 14.5 km/h 22.5 km/h 89 % 0.0 mm
04:22 -2.5 °C -4.2 °C 1029.0 hPa NNE 12.9 km/h 22.5 km/h 88 % 0.0 mm
04:32 -2.6 °C -4.3 °C 1029.0 hPa NNE 12.9 km/h 29.0 km/h 88 % 0.0 mm
04:37 -2.6 °C -4.5 °C 1029.0 hPa NNE 11.3 km/h 24.1 km/h 87 % 0.0 mm
04:42 -2.7 °C -4.6 °C 1029.0 hPa NNE 9.7 km/h 24.1 km/h 87 % 0.0 mm
04:47 -2.7 °C -4.6 °C 1029.0 hPa NNE 4.8 km/h 22.5 km/h 87 % 0.0 mm
04:57 -2.9 °C -4.6 °C 1029.3 hPa NNE 14.5 km/h 17.7 km/h 88 % 0.0 mm
05:02 -2.9 °C -4.6 °C 1029.3 hPa NE 12.9 km/h 17.7 km/h 88 % 0.0 mm
05:12 -2.9 °C -4.8 °C 1029.3 hPa North 8.0 km/h 22.5 km/h 87 % 0.0 mm
05:22 -2.9 °C -4.8 °C 1029.3 hPa North 8.0 km/h 22.5 km/h 87 % 0.0 mm
05:27 -3.0 °C -5.0 °C 1029.3 hPa North 1.6 km/h 20.9 km/h 86 % 0.0 mm
05:32 -3.1 °C -5.0 °C 1029.3 hPa NNE 3.2 km/h 20.9 km/h 87 % 0.0 mm
05:42 -3.1 °C -5.1 °C 1029.3 hPa NE 4.8 km/h 19.3 km/h 86 % 0.0 mm
05:47 -3.1 °C -5.1 °C 1029.7 hPa NE 6.4 km/h 19.3 km/h 86 % 0.0 mm
05:52 -3.1 °C -5.1 °C 1029.3 hPa NE 9.7 km/h 19.3 km/h 86 % 0.0 mm
05:57 -3.2 °C -5.2 °C 1029.3 hPa NNE 12.9 km/h 27.4 km/h 86 % 0.0 mm
06:02 -3.2 °C -5.2 °C 1029.3 hPa NE 17.7 km/h 27.4 km/h 86 % 0.0 mm
06:07 -3.2 °C -5.4 °C 1029.3 hPa NNE 3.2 km/h 27.4 km/h 85 % 0.0 mm
06:12 -3.2 °C -5.4 °C 1029.3 hPa North 3.2 km/h 27.4 km/h 85 % 0.0 mm
06:17 -3.3 °C -5.5 °C 1029.3 hPa NNE 6.4 km/h 22.5 km/h 85 % 0.0 mm
06:22 -3.3 °C -5.5 °C 1029.7 hPa NNW 1.6 km/h 22.5 km/h 85 % 0.0 mm
06:27 -3.4 °C -5.6 °C 1029.7 hPa NE 6.4 km/h 22.5 km/h 85 % 0.0 mm
06:32 -3.4 °C -5.6 °C 1029.7 hPa NNE 17.7 km/h 22.5 km/h 85 % 0.0 mm
06:37 -3.4 °C -5.6 °C 1029.7 hPa NE 8.0 km/h 22.5 km/h 85 % 0.0 mm
06:47 -3.4 °C -5.6 °C 1029.7 hPa NE 4.8 km/h 22.5 km/h 85 % 0.0 mm
06:52 -3.4 °C -5.6 °C 1029.7 hPa NE 14.5 km/h 22.5 km/h 85 % 0.0 mm
06:57 -3.4 °C -5.6 °C 1029.7 hPa NNE 9.7 km/h 24.1 km/h 85 % 0.0 mm
07:02 -3.5 °C -5.7 °C 1030.0 hPa NE 14.5 km/h 24.1 km/h 85 % 0.0 mm
07:12 -3.6 °C -5.8 °C 1030.0 hPa NE 16.1 km/h 24.1 km/h 85 % 0.0 mm
07:17 -3.6 °C -5.8 °C 1030.0 hPa NE 14.5 km/h 17.7 km/h 85 % 0.0 mm
07:22 -3.6 °C -5.8 °C 1030.0 hPa ENE 6.4 km/h 20.9 km/h 85 % 0.0 mm
07:27 -3.6 °C -5.8 °C 1030.0 hPa NNW 3.2 km/h 20.9 km/h 85 % 0.0 mm
07:32 -3.7 °C -5.9 °C 1030.0 hPa NNE 11.3 km/h 20.9 km/h 85 % 0.0 mm
07:42 -3.7 °C -5.9 °C 1030.4 hPa NE 3.2 km/h 20.9 km/h 85 % 0.0 mm
07:47 -3.7 °C -5.9 °C 1030.4 hPa NNW 1.6 km/h 20.9 km/h 85 % 0.0 mm
07:52 -3.7 °C -5.9 °C 1030.4 hPa NE 9.7 km/h 20.9 km/h 85 % 0.0 mm
07:57 -3.8 °C -5.9 °C 1030.4 hPa North 12.9 km/h 24.1 km/h 85 % 0.0 mm
08:02 -3.8 °C -5.9 °C 1030.4 hPa NNE 6.4 km/h 24.1 km/h 85 % 0.0 mm
08:12 -3.8 °C -5.9 °C 1030.7 hPa NW 4.8 km/h 24.1 km/h 85 % 0.0 mm
08:17 -3.9 °C -6.0 °C 1030.7 hPa NNW 6.4 km/h 24.1 km/h 85 % 0.0 mm
08:22 -3.9 °C -5.9 °C 1030.7 hPa NE 11.3 km/h 24.1 km/h 86 % 0.0 mm
08:32 -4.1 °C -6.1 °C 1030.7 hPa NE 8.0 km/h 20.9 km/h 86 % 0.0 mm
08:37 -4.1 °C -6.1 °C 1030.7 hPa ENE 8.0 km/h 19.3 km/h 86 % 0.0 mm
08:42 -4.1 °C -5.9 °C 1030.7 hPa NNE 12.9 km/h 19.3 km/h 87 % 0.0 mm
08:47 -4.1 °C -6.1 °C 1030.7 hPa NE 12.9 km/h 19.3 km/h 86 % 0.0 mm
08:52 -4.1 °C -6.1 °C 1030.7 hPa NE 9.7 km/h 19.3 km/h 86 % 0.0 mm
08:57 -4.1 °C -6.1 °C 1030.7 hPa NNW 3.2 km/h 20.9 km/h 86 % 0.0 mm
09:02 -4.1 °C -5.9 °C 1030.7 hPa NE 3.2 km/h 20.9 km/h 87 % 0.0 mm
09:12 -4.0 °C -6.0 °C 1030.7 hPa NNE 8.0 km/h 17.7 km/h 86 % 0.0 mm
09:17 -3.9 °C -5.7 °C 1030.7 hPa NW 4.8 km/h 19.3 km/h 87 % 0.0 mm
09:22 -3.8 °C -5.8 °C 1031.0 hPa NNW 6.4 km/h 19.3 km/h 86 % 0.0 mm
09:32 -3.7 °C -5.7 °C 1031.0 hPa North 4.8 km/h 19.3 km/h 86 % 0.0 mm
09:37 -3.6 °C -5.6 °C 1031.0 hPa NNE 8.0 km/h 22.5 km/h 86 % 0.0 mm
09:42 -3.5 °C -5.5 °C 1031.0 hPa North 4.8 km/h 22.5 km/h 86 % 0.0 mm
09:52 -3.4 °C -5.4 °C 1031.0 hPa NNE 9.7 km/h 22.5 km/h 86 % 0.0 mm
09:57 -3.4 °C -5.4 °C 1031.0 hPa NNW 6.4 km/h 17.7 km/h 86 % 0.0 mm
10:02 -3.3 °C -5.3 °C 1031.0 hPa North 11.3 km/h 17.7 km/h 86 % 0.0 mm
10:12 -3.2 °C -5.2 °C 1031.0 hPa North 3.2 km/h 17.7 km/h 86 % 0.0 mm
10:17 -3.1 °C -5.1 °C 1031.0 hPa North 8.0 km/h 19.3 km/h 86 % 0.0 mm
10:22 -3.0 °C -5.0 °C 1031.0 hPa NE 4.8 km/h 19.3 km/h 86 % 0.0 mm
10:32 -2.9 °C -4.9 °C 1031.0 hPa NNW 4.8 km/h 22.5 km/h 86 % 0.0 mm
10:37 -2.9 °C -5.1 °C 1031.0 hPa West 4.8 km/h 22.5 km/h 85 % 0.0 mm
10:42 -2.8 °C -5.0 °C 1031.0 hPa NNE 17.7 km/h 25.7 km/h 85 % 0.0 mm
10:47 -2.8 °C -5.0 °C 1031.0 hPa North 8.0 km/h 25.7 km/h 85 % 0.0 mm
10:57 -2.7 °C -4.9 °C 1031.0 hPa NW 11.3 km/h 25.7 km/h 85 % 0.0 mm
11:02 -2.6 °C -4.9 °C 1031.4 hPa NNW 20.9 km/h 22.5 km/h 84 % 0.0 mm
11:07 -2.6 °C -4.8 °C 1031.4 hPa NNW 11.3 km/h 25.7 km/h 85 % 0.0 mm
11:12 -2.5 °C -4.7 °C 1031.4 hPa NNW 9.7 km/h 25.7 km/h 85 % 0.0 mm
11:22 -2.3 °C -4.6 °C 1031.0 hPa NW 6.4 km/h 24.1 km/h 84 % 0.0 mm
11:27 -2.3 °C -4.8 °C 1031.0 hPa North 17.7 km/h 24.1 km/h 83 % 0.0 mm
11:32 -2.2 °C -4.7 °C 1031.0 hPa North 9.7 km/h 24.1 km/h 83 % 0.0 mm
11:37 -2.1 °C -4.6 °C 1031.0 hPa North 19.3 km/h 25.7 km/h 83 % 0.0 mm
11:42 -2.1 °C -4.8 °C 1031.0 hPa NNE 17.7 km/h 32.2 km/h 82 % 0.0 mm
11:47 -2.0 °C -4.8 °C 1031.0 hPa NNE 14.5 km/h 32.2 km/h 81 % 0.0 mm
11:52 -1.9 °C -4.7 °C 1031.0 hPa NNE 16.1 km/h 32.2 km/h 81 % 0.0 mm
11:57 -1.9 °C -4.7 °C 1031.0 hPa NNW 17.7 km/h 29.0 km/h 81 % 0.0 mm
12:02 -1.8 °C -4.6 °C 1030.7 hPa NNW 4.8 km/h 29.0 km/h 81 % 0.0 mm
12:12 -1.7 °C -4.5 °C 1030.7 hPa NNW 14.5 km/h 30.6 km/h 81 % 0.0 mm
12:17 -1.6 °C -4.6 °C 1030.7 hPa NNE 9.7 km/h 30.6 km/h 80 % 0.0 mm
12:22 -1.6 °C -4.6 °C 1030.7 hPa NNE 12.9 km/h 30.6 km/h 80 % 0.0 mm
12:27 -1.4 °C -4.4 °C 1030.7 hPa North 17.7 km/h 30.6 km/h 80 % 0.0 mm
12:32 -1.4 °C -4.4 °C 1030.7 hPa NNE 9.7 km/h 25.7 km/h 80 % 0.0 mm
12:37 -1.3 °C -4.3 °C 1030.7 hPa NNE 9.7 km/h 27.4 km/h 80 % 0.0 mm
12:42 -1.3 °C -4.6 °C 1030.7 hPa North 20.9 km/h 32.2 km/h 78 % 0.0 mm
12:47 -1.2 °C -4.5 °C 1030.7 hPa NE 22.5 km/h 32.2 km/h 78 % 0.0 mm
12:52 -1.1 °C -4.3 °C 1030.7 hPa NNE 14.5 km/h 32.2 km/h 79 % 0.0 mm
12:57 -1.2 °C -5.1 °C 1030.7 hPa NE 17.7 km/h 38.6 km/h 75 % 0.0 mm
13:02 -1.3 °C -5.0 °C 1030.7 hPa NNE 20.9 km/h 38.6 km/h 76 % 0.0 mm
13:12 -1.6 °C -4.8 °C 1031.0 hPa North 14.5 km/h 35.4 km/h 79 % 0.0 mm
13:17 -1.6 °C -4.6 °C 1031.0 hPa NNE 19.3 km/h 35.4 km/h 80 % 0.0 mm
13:22 -1.6 °C -4.6 °C 1031.0 hPa East 19.3 km/h 30.6 km/h 80 % 0.0 mm
13:27 -1.7 °C -4.9 °C 1031.0 hPa NE 11.3 km/h 30.6 km/h 79 % 0.0 mm
13:32 -1.7 °C -4.5 °C 1031.0 hPa NE 14.5 km/h 30.6 km/h 81 % 0.0 mm
13:37 -1.8 °C -5.0 °C 1031.0 hPa NNE 8.0 km/h 29.0 km/h 79 % 0.0 mm
13:42 -1.9 °C -5.1 °C 1031.0 hPa NNE 19.3 km/h 29.0 km/h 79 % 0.0 mm
13:52 -2.4 °C -5.4 °C 1031.0 hPa NNE 20.9 km/h 35.4 km/h 80 % 0.0 mm
13:57 -2.4 °C -5.4 °C 1031.0 hPa NNE 22.5 km/h 35.4 km/h 80 % 0.0 mm
14:02 -2.5 °C -5.3 °C 1031.0 hPa NNE 16.1 km/h 33.8 km/h 81 % 0.0 mm
14:12 -2.5 °C -5.5 °C 1030.7 hPa NE 19.3 km/h 33.8 km/h 80 % 0.0 mm
14:17 -2.3 °C -5.0 °C 1030.7 hPa NE 16.1 km/h 29.0 km/h 82 % 0.0 mm
14:22 -2.3 °C -5.0 °C 1030.7 hPa North 16.1 km/h 29.0 km/h 82 % 0.0 mm
14:32 -2.6 °C -5.4 °C 1030.7 hPa NNE 11.3 km/h 30.6 km/h 81 % 0.0 mm
14:37 -2.6 °C -5.2 °C 1030.7 hPa North 12.9 km/h 30.6 km/h 82 % 0.0 mm
14:42 -2.5 °C -5.3 °C 1030.7 hPa North 22.5 km/h 35.4 km/h 81 % 0.0 mm
14:47 -2.5 °C -5.3 °C 1030.7 hPa NE 8.0 km/h 35.4 km/h 81 % 0.0 mm
14:52 -2.7 °C -5.7 °C 1031.0 hPa North 12.9 km/h 38.6 km/h 80 % 0.0 mm
14:57 -2.8 °C -5.8 °C 1031.0 hPa North 19.3 km/h 38.6 km/h 80 % 0.0 mm
15:02 -2.7 °C -5.5 °C 1031.0 hPa NNW 17.7 km/h 38.6 km/h 81 % 0.0 mm
15:12 -3.1 °C -6.1 °C 1031.0 hPa NNE 25.7 km/h 41.8 km/h 80 % 0.0 mm
15:17 -3.1 °C -5.9 °C 1031.0 hPa NE 20.9 km/h 41.8 km/h 81 % 0.0 mm
15:22 -3.1 °C -5.7 °C 1031.0 hPa NNE 19.3 km/h 37.0 km/h 82 % 0.0 mm
15:27 -3.1 °C -5.7 °C 1031.0 hPa NNE 14.5 km/h 33.8 km/h 82 % 0.0 mm
15:32 -3.1 °C -5.7 °C 1031.0 hPa NNW 12.9 km/h 33.8 km/h 82 % 0.0 mm
15:37 -3.2 °C -6.2 °C 1031.0 hPa NE 11.3 km/h 37.0 km/h 80 % 0.0 mm
15:42 -3.2 °C -6.0 °C 1031.0 hPa NNE 4.8 km/h 37.0 km/h 81 % 0.0 mm
15:52 -3.2 °C -6.2 °C 1031.0 hPa NE 17.7 km/h 32.2 km/h 80 % 0.0 mm
15:57 -3.2 °C -6.0 °C 1031.0 hPa North 20.9 km/h 32.2 km/h 81 % 0.0 mm
16:02 -3.0 °C -5.6 °C 1031.0 hPa NNE 19.3 km/h 32.2 km/h 82 % 0.0 mm
16:07 -2.9 °C -5.7 °C 1031.0 hPa NNE 14.5 km/h 29.0 km/h 81 % 0.0 mm
16:12 -2.9 °C -5.7 °C 1031.0 hPa NNE 20.9 km/h 29.0 km/h 81 % 0.0 mm
16:17 -2.9 °C -5.9 °C 1031.0 hPa NNE 4.8 km/h 30.6 km/h 80 % 0.0 mm
16:22 -2.9 °C -5.9 °C 1031.0 hPa North 3.2 km/h 30.6 km/h 80 % 0.0 mm
16:27 -2.9 °C -5.9 °C 1031.0 hPa ENE 17.7 km/h 30.6 km/h 80 % 0.0 mm
16:32 -2.9 °C -5.9 °C 1031.0 hPa NNE 11.3 km/h 30.6 km/h 80 % 0.0 mm
16:37 -2.9 °C -5.9 °C 1031.0 hPa North 3.2 km/h 30.6 km/h 80 % 0.0 mm
16:42 -2.9 °C -6.0 °C 1031.0 hPa NNE 14.5 km/h 33.8 km/h 79 % 0.0 mm
16:52 -2.9 °C -5.9 °C 1030.7 hPa NNW 8.0 km/h 33.8 km/h 80 % 0.0 mm
16:57 -2.9 °C -5.9 °C 1030.7 hPa NNE 24.1 km/h 32.2 km/h 80 % 0.0 mm
17:02 -2.9 °C -5.9 °C 1030.7 hPa NE 24.1 km/h 32.2 km/h 80 % 0.0 mm
17:12 -3.0 °C -6.0 °C 1030.7 hPa East 12.9 km/h 33.8 km/h 80 % 0.0 mm
17:17 -3.1 °C -6.1 °C 1030.7 hPa NNE 11.3 km/h 33.8 km/h 80 % 0.0 mm
17:22 -3.2 °C -6.2 °C 1030.7 hPa NE 22.5 km/h 30.6 km/h 80 % 0.0 mm
17:32 -3.2 °C -6.0 °C 1030.7 hPa North 12.9 km/h 33.8 km/h 81 % 0.0 mm
17:37 -3.3 °C -6.1 °C 1030.7 hPa NNE 3.2 km/h 37.0 km/h 81 % 0.0 mm
17:42 -3.4 °C -6.0 °C 1030.7 hPa NNW 8.0 km/h 37.0 km/h 82 % 0.0 mm
17:52 -3.5 °C -6.0 °C 1030.7 hPa NNW 9.7 km/h 24.1 km/h 83 % 0.0 mm
17:57 -3.5 °C -6.0 °C 1030.7 hPa North 17.7 km/h 22.5 km/h 83 % 0.0 mm
18:07 -3.4 °C -5.9 °C 1030.7 hPa NE 8.0 km/h 27.4 km/h 83 % 0.0 mm
18:12 -3.4 °C -5.9 °C 1030.7 hPa NE 6.4 km/h 27.4 km/h 83 % 0.0 mm
18:17 -3.4 °C -5.9 °C 1030.7 hPa North 14.5 km/h 27.4 km/h 83 % 0.0 mm
18:22 -3.4 °C -5.9 °C 1030.7 hPa NNE 8.0 km/h 27.4 km/h 83 % 0.0 mm
18:27 -3.4 °C -5.9 °C 1030.7 hPa NNE 11.3 km/h 27.4 km/h 83 % 0.0 mm
18:32 -3.4 °C -5.9 °C 1030.7 hPa Calm   27.4 km/h 83 % 0.0 mm
18:37 -3.4 °C -5.9 °C 1031.0 hPa ENE 11.3 km/h 27.4 km/h 83 % 0.0 mm
18:42 -3.4 °C -5.9 °C 1031.0 hPa NNE 12.9 km/h 25.7 km/h 83 % 0.0 mm
18:47 -3.3 °C -5.8 °C 1031.0 hPa North 11.3 km/h 27.4 km/h 83 % 0.0 mm
18:52 -3.3 °C -5.8 °C 1031.0 hPa NNE 22.5 km/h 27.4 km/h 83 % 0.0 mm
18:57 -3.3 °C -5.8 °C 1031.0 hPa NE 11.3 km/h 27.4 km/h 83 % 0.0 mm
19:02 -3.3 °C -5.8 °C 1031.0 hPa NNE 6.4 km/h 27.4 km/h 83 % 0.0 mm
19:12 -3.3 °C -5.8 °C 1031.0 hPa NE 6.4 km/h 24.1 km/h 83 % 0.0 mm
19:17 -3.3 °C -5.8 °C 1031.4 hPa East 4.8 km/h 27.4 km/h 83 % 0.0 mm
19:22 -3.2 °C -5.7 °C 1031.4 hPa NW 11.3 km/h 32.2 km/h 83 % 0.0 mm
19:32 -3.2 °C -5.7 °C 1031.4 hPa NE 6.4 km/h 27.4 km/h 83 % 0.0 mm
19:37 -3.2 °C -5.7 °C 1031.4 hPa North 12.9 km/h 30.6 km/h 83 % 0.0 mm
19:42 -3.2 °C -5.7 °C 1031.4 hPa North 12.9 km/h 37.0 km/h 83 % 0.0 mm
19:47 -3.2 °C -5.7 °C 1031.4 hPa NE 9.7 km/h 37.0 km/h 83 % 0.0 mm
19:52 -3.2 °C -5.7 °C 1031.4 hPa WNW 9.7 km/h 37.0 km/h 83 % 0.0 mm
19:57 -3.2 °C -5.7 °C 1031.4 hPa NE 3.2 km/h 35.4 km/h 83 % 0.0 mm
20:02 -3.3 °C -5.8 °C 1031.4 hPa NE 12.9 km/h 35.4 km/h 83 % 0.0 mm
20:07 -3.3 °C -5.8 °C 1031.0 hPa NNW 20.9 km/h 35.4 km/h 83 % 0.0 mm
20:22 -3.4 °C -5.9 °C 1031.0 hPa NE 11.3 km/h 32.2 km/h 83 % 0.0 mm
20:32 -3.5 °C -6.0 °C 1031.0 hPa NNW 17.7 km/h 32.2 km/h 83 % 0.0 mm
20:37 -3.5 °C -6.0 °C 1031.0 hPa NE 20.9 km/h 32.2 km/h 83 % 0.0 mm
20:42 -3.6 °C -6.1 °C 1031.0 hPa NNE 12.9 km/h 29.0 km/h 83 % 0.0 mm
20:47 -3.7 °C -6.0 °C 1031.0 hPa NNE 11.3 km/h 27.4 km/h 84 % 0.0 mm
20:52 -3.7 °C -6.2 °C 1031.0 hPa ESE 8.0 km/h 25.7 km/h 83 % 0.0 mm
20:57 -3.7 °C -6.2 °C 1031.0 hPa ENE 9.7 km/h 25.7 km/h 83 % 0.0 mm
21:02 -3.8 °C -6.1 °C 1031.0 hPa NNW 20.9 km/h 25.7 km/h 84 % 0.0 mm
21:07 -3.9 °C -6.2 °C 1031.0 hPa NNW 12.9 km/h 27.4 km/h 84 % 0.0 mm
21:12 -3.9 °C -6.2 °C 1031.0 hPa NE 20.9 km/h 27.4 km/h 84 % 0.0 mm
21:17 -3.9 °C -6.2 °C 1031.0 hPa NNW 4.8 km/h 27.4 km/h 84 % 0.0 mm
21:22 -4.0 °C -6.3 °C 1031.0 hPa North 14.5 km/h 22.5 km/h 84 % 0.0 mm
21:32 -4.0 °C -6.3 °C 1031.0 hPa North 11.3 km/h 25.7 km/h 84 % 0.0 mm
21:37 -4.1 °C -6.2 °C 1031.0 hPa NE 8.0 km/h 25.7 km/h 85 % 0.0 mm
21:42 -4.1 °C -6.2 °C 1030.7 hPa NNW 24.1 km/h 29.0 km/h 85 % 0.0 mm
21:47 -4.1 °C -6.4 °C 1031.0 hPa NE 19.3 km/h 30.6 km/h 84 % 0.0 mm
21:52 -4.0 °C -6.3 °C 1031.0 hPa NNE 11.3 km/h 30.6 km/h 84 % 0.0 mm
21:57 -4.1 °C -6.4 °C 1031.0 hPa NE 17.7 km/h 30.6 km/h 84 % 0.0 mm
22:02 -4.1 °C -6.4 °C 1031.0 hPa NNE 11.3 km/h 30.6 km/h 84 % 0.0 mm
22:12 -4.1 °C -6.4 °C 1031.0 hPa North 14.5 km/h 29.0 km/h 84 % 0.0 mm
22:17 -4.2 °C -6.5 °C 1031.0 hPa NNE 17.7 km/h 29.0 km/h 84 % 0.0 mm
22:22 -4.2 °C -6.5 °C 1030.7 hPa North 6.4 km/h 27.4 km/h 84 % 0.0 mm
22:32 -4.1 °C -6.4 °C 1030.7 hPa NE 19.3 km/h 32.2 km/h 84 % 0.0 mm
22:37 -4.1 °C -6.6 °C 1030.7 hPa North 24.1 km/h 32.2 km/h 83 % 0.0 mm
22:42 -4.1 °C -6.6 °C 1030.7 hPa NE 8.0 km/h 32.2 km/h 83 % 0.0 mm
22:47 -4.1 °C -6.6 °C 1030.7 hPa NE 3.2 km/h 32.2 km/h 83 % 0.0 mm
22:52 -4.1 °C -6.6 °C 1030.4 hPa NNW 17.7 km/h 30.6 km/h 83 % 0.0 mm
22:57 -4.1 °C -6.7 °C 1030.7 hPa NNE 17.7 km/h 29.0 km/h 82 % 0.0 mm
23:02 -3.9 °C -6.7 °C 1030.7 hPa NNW 6.4 km/h 29.0 km/h 81 % 0.0 mm
23:07 -3.8 °C -6.7 °C 1030.7 hPa NNE 17.7 km/h 30.6 km/h 80 % 0.0 mm
23:12 -3.7 °C -6.6 °C 1030.7 hPa North 11.3 km/h 35.4 km/h 80 % 0.0 mm
23:17 -3.7 °C -6.6 °C 1030.7 hPa NE 16.1 km/h 35.4 km/h 80 % 0.0 mm
23:22 -3.7 °C -6.8 °C 1030.7 hPa NNE 12.9 km/h 35.4 km/h 79 % 0.0 mm
23:27 -3.7 °C -6.8 °C 1030.7 hPa NE 9.7 km/h 32.2 km/h 79 % 0.0 mm
23:32 -3.7 °C -6.8 °C 1030.7 hPa North 22.5 km/h 32.2 km/h 79 % 0.0 mm
23:37 -3.7 °C -6.8 °C 1030.7 hPa NE 11.3 km/h 32.2 km/h 79 % 0.0 mm
23:42 -3.7 °C -6.8 °C 1030.7 hPa NNE 17.7 km/h 32.2 km/h 79 % 0.0 mm
23:47 -3.7 °C -6.8 °C 1030.7 hPa NE 17.7 km/h 37.0 km/h 79 % 0.0 mm
23:52 -3.7 °C -6.8 °C 1030.7 hPa NNE 20.9 km/h 37.0 km/h 79 % 0.0 mm
23:57 -3.7 °C -6.8 °C 1030.7 hPa NNE 24.1 km/h 32.2 km/h 79 % 0.0 mm
Meteo18
Compliments of Weather Underground - 4 mb

Script developed by  Jim McMurry - jmcmurry@mwt.net Adapted for the template by  Wim van der Kuil - Leuven-Template.eu

You find our weather info also at:

European Weather Network

Weather Underground

Equipment we use:

Weather-station
Davis Vue

Weather-program
Meteohub

Weather-server
Raspberry PI 2 B+

Provider
1 and 1

Davis Vue

Meteohub

Raspberry PI 2 B+

1 and 1